Lihue, HI

1:55 PM HST on September 21, 2017 (GMT -1000)
Lihue

Weather History for PHLI - March, 2013

Change the Weather History Date:

Saturday, March 30, 2013

  Actual Average Record
Temperature  
Mean Temperature 71 °F 73 °F  
Max Temperature 78 °F 79 °F 87 °F (1963)
Min Temperature 63 °F 68 °F 58 °F (1979)
Degree Days  
Heating Degree Days 0 0  
Month to date heating degree days 0 0  
Since 1 July heating degree days 0 0  
Cooling Degree Days 6 8  
Month to date cooling degree days 150 228  
Year to date cooling degree days 537 623  
Growing Degree Days 19 (Base 50)    
Moisture  
Dew Point 61 °F    
Average Humidity 78    
Maximum Humidity 87    
Minimum Humidity 68    
Precipitation  
Precipitation 0.01 in 0.13 in 1.24 in (2002)
Month to date precipitation 4.29 4.48  
Year to date precipitation 11.17 11.39  
Snow  
Snow 0.00 in - - ()
Month to date snowfall 0.0  
Since 1 July snowfall 0.0  
Snow Depth 0.00 in    
Sea Level Pressure  
Sea Level Pressure 30.05 in    
Wind  
Wind Speed 11 mph (North)    
Max Wind Speed 29 mph    
Max Gust Speed 33 mph    
Visibility 9 miles    
Events Rain    
T = Trace of Precipitation, MM = Missing Value Source: NWS Daily Summary

Daily Weather History Graph

Daily Weather History Graph

Search for Another Location

Airport or City:

Trip Planner

Search our weather history database for the weather conditions in past years. The results will help you decide how hot, cold, wet, or windy it might be!

Date:

Astronomy

Mar. 30, 2013 Rise Set
Actual Time 6:31 AM HST 6:51 PM HST
Civil Twilight 6:09 AM HST 7:14 PM HST
Nautical Twilight 5:43 AM HST 7:40 PM HST
Astronomical Twilight 5:16 AM HST 8:06 PM HST
Moon 10:41 PM HST (3/30) 9:04 AM HST (3/30)
Length of Visible Light 13h 05m
Length of Day
12h 20m
Waning Gibbous, 84% of the Moon is Illuminated
Mar 30
Waning Gibbous
Apr 2
Last Quarter
Apr 9
New
Apr 18
First Quarter
Apr 25
Full

Hourly Weather History & Observations

Time (HST) Temp. Dew Point Humidity Pressure Visibility Wind Dir Wind Speed Gust Speed Precip Events Conditions
12:53 AM 66.9 °F 62.1 °F 84% 30.06 in 10.0 mi WNW 8.1 mph - N/A   Overcast
1:53 AM 66.9 °F 62.1 °F 84% 30.05 in 10.0 mi West 5.8 mph - N/A   Overcast
2:53 AM 66.0 °F 62.1 °F 87% 30.03 in 10.0 mi West 5.8 mph - N/A   Mostly Cloudy
3:53 AM 64.9 °F 61.0 °F 87% 30.02 in 10.0 mi West 6.9 mph - N/A   Clear
4:53 AM 64.0 °F 61.0 °F 90% 30.02 in 10.0 mi West 8.1 mph - N/A   Clear
5:53 AM 64.0 °F 61.0 °F 90% 30.04 in 10.0 mi West 8.1 mph - N/A   Scattered Clouds
6:53 AM 64.0 °F 61.0 °F 90% 30.06 in 10.0 mi WNW 6.9 mph - N/A   Mostly Cloudy
7:53 AM 69.1 °F 63.0 °F 81% 30.08 in 10.0 mi West 4.6 mph - N/A   Clear
8:53 AM 73.0 °F 63.0 °F 71% 30.09 in 10.0 mi NNE 8.1 mph - N/A   Clear
9:53 AM 75.9 °F 64.9 °F 69% 30.10 in 10.0 mi NE 10.4 mph - N/A   Partly Cloudy
10:53 AM 75.9 °F 64.9 °F 69% 30.08 in 10.0 mi NE 16.1 mph 26.5 mph N/A   Scattered Clouds
11:53 AM 73.0 °F 64.0 °F 73% 30.08 in 10.0 mi North 25.3 mph 33.4 mph N/A   Mostly Cloudy
12:53 PM 73.0 °F 66.0 °F 79% 30.06 in 10.0 mi NNE 16.1 mph - 0.00 in   Mostly Cloudy
1:40 PM 69.8 °F 66.2 °F 88% 30.06 in 4.0 mi NNE 19.6 mph 26.5 mph 0.00 in   Overcast
1:53 PM 71.1 °F 66.9 °F 87% 30.05 in 10.0 mi North 15.0 mph - 0.00 in Rain Light Rain
2:06 PM 69.8 °F 64.4 °F 83% 30.05 in 3.0 mi North 17.3 mph 26.5 mph 0.00 in Rain Heavy Rain
2:14 PM 71.6 °F 66.2 °F 83% 30.05 in 7.0 mi North 24.2 mph 31.1 mph 0.01 in Rain Light Rain
2:21 PM 69.8 °F 64.4 °F 83% 30.05 in 8.0 mi North 23.0 mph 31.1 mph 0.01 in Rain Light Rain
2:34 PM 71.6 °F 66.2 °F 83% 30.04 in 10.0 mi North 19.6 mph - 0.01 in   Overcast
2:41 PM 71.6 °F 64.4 °F 78% 30.05 in 10.0 mi North 20.7 mph 27.6 mph 0.01 in   Mostly Cloudy
2:53 PM 73.0 °F 63.0 °F 71% 30.04 in 10.0 mi North 19.6 mph - 0.01 in   Mostly Cloudy
3:53 PM 73.9 °F 60.1 °F 62% 30.03 in 10.0 mi North 21.9 mph 31.1 mph N/A   Partly Cloudy
4:53 PM 73.9 °F 60.1 °F 62% 30.02 in 10.0 mi North 16.1 mph 25.3 mph N/A   Overcast
5:53 PM 72.0 °F 57.9 °F 61% 30.02 in 10.0 mi North 16.1 mph 23.0 mph N/A   Mostly Cloudy
6:53 PM 69.1 °F 57.9 °F 68% 30.03 in 10.0 mi North 17.3 mph - N/A   Clear
7:53 PM 68.0 °F 57.0 °F 68% 30.04 in 10.0 mi North 12.7 mph - N/A   Clear
8:53 PM 66.9 °F 53.1 °F 61% 30.07 in 10.0 mi North 12.7 mph - N/A   Clear
9:53 PM 64.9 °F 52.0 °F 63% 30.08 in 10.0 mi North 11.5 mph - N/A   Partly Cloudy
10:53 PM 64.9 °F 52.0 °F 63% 30.08 in 10.0 mi North 13.8 mph - N/A   Clear
11:53 PM 64.0 °F 51.1 °F 63% 30.08 in 10.0 mi North 10.4 mph - N/A   Scattered Clouds